Wind_Speed
4 4 4 3 3 3 3 3 3 3 3 3 4 3 2 2 2 3 2 2 2 1 1 1 1 1 1 1 1 2 2 3 2 2 2 2 3 3 3 3 3 3 3 4 5 4 4 3 3
4 4 4 4 3 3 3 3 3 3 3 3 3 3 3 3 3 3 3 3 2 2 2 2 2 2 2 2 2 3 3 3 3 3 3 3 3 3 3 3 3 4 4 4 4 3 4 4 4
4 4 4 4 4 4 4 3 3 2 3 3 3 3 3 3 3 3 3 3 3 3 3 3 2 3 3 3 3 3 3 4 4 4 4 4 4 4 3 3 3 4 4 4 3 3 4 4 5
4 4 4 5 5 5 4 4 3 3 3 4 4 3 3 3 3 4 4 4 4 3 3 4 4 4 4 4 4 4 5 5 5 5 5 5 5 4 4 4 4 4 5 5 4 4 4 5 5
4 4 5 5 5 5 5 5 4 3 3 4 5 4 4 4 4 4 5 5 5 4 4 4 5 5 5 5 5 5 6 6 6 5 5 5 5 5 5 5 5 4 5 5 5 5 5 5 5
4 5 5 5 5 5 5 5 5 5 4 5 5 5 5 5 5 5 5 5 5 5 4 5 5 6 5 5 6 6 7 6 6 6 6 6 6 6 6 6 5 5 5 5 6 6 6 5 5
4 5 5 6 6 6 6 6 5 5 5 5 6 6 6 6 6 6 6 6 6 6 6 6 6 6 6 6 7 7 7 6 6 6 6 6 5 6 6 7 6 6 6 6 6 6 6 6 6
5 6 6 6 7 7 7 6 6 6 6 6 6 7 6 7 7 7 7 7 7 6 7 7 7 7 7 7 7 7 6 6 5 5 6 6 6 6 6 7 7 6 6 6 5 6 6 6 6
6 7 7 7 8 7 7 7 6 6 7 7 7 7 7 7 7 7 7 7 7 7 7 7 7 8 8 7 7 6 6 6 5 6 6 6 6 6 6 6 6 6 6 6 5 5 5 6 6
6 7 7 8 8 8 7 7 7 6 6 7 7 8 8 8 8 8 8 8 7 7 8 8 8 9 8 8 7 7 6 6 7 6 7 6 6 6 6 6 6 5 5 6 6 6 6 7 7
7 7 7 8 8 8 8 8 8 8 8 7 7 8 8 8 8 8 9 9 8 8 8 9 8 8 8 8 8 8 8 8 8 8 8 7 7 7 6 6 5 5 6 6 6 6 6 7 7
8 8 8 8 8 9 9 8 8 8 8 8 8 8 8 9 9 8 8 9 9 9 9 9 9 9 9 9 9 9 9 8 7 7 7 6 6 7 6 6 6 6 6 7 7 7 7 7 7
8 8 8 8 8 8 9 9 8 9 9 10 10 9 9 9 8 8 8 8 9 9 9 9 9 9 9 9 9 9 9 8 7 6 6 6 6 6 6 6 6 6 6 7 7 7 7 7 7
8 8 8 8 8 9 9 9 9 9 10 10 10 10 10 10 9 9 9 9 9 9 10 9 9 9 9 8 8 9 8 8 7 7 6 6 6 6 6 6 6 6 6 7 7 8 8 8 8
8 8 9 9 9 9 9 9 9 9 9 9 9 9 9 9 9 10 10 10 9 10 10 10 10 9 8 8 9 8 8 7 7 7 6 6 6 6 6 6 6 6 6 7 8 8 8 8 8
9 9 9 9 9 9 9 9 9 9 9 9 9 9 9 9 10 10 10 10 10 10 10 10 10 9 8 8 8 8 8 8 7 7 6 6 6 6 6 6 6 7 7 7 8 7 8 8 8
8 8 8 9 9 9 9 9 10 10 10 9 9 10 10 10 10 10 10 10 10 10 10 10 9 9 8 8 8 8 9 9 8 8 8 7 7 6 6 6 7 7 7 7 8 7 7 8 8
9 8 8 8 8 9 9 10 10 11 10 10 10 10 11 10 10 10 10 10 10 10 10 9 8 8 8 8 8 8 8 9 9 9 9 8 8 7 7 7 7 7 7 7 8 8 8 8 8
9 8 8 8 8 9 9 9 9 9 9 9 9 9 9 10 10 10 10 11 10 10 10 9 9 8 8 8 8 8 8 9 10 10 9 9 9 9 9 8 8 8 8 8 8 8 8 8 8
8 8 9 9 8 8 8 8 9 8 8 8 9 9 9 9 9 10 10 10 10 10 10 10 9 9 9 9 9 9 9 9 9 9 9 9 10 9 9 9 9 9 9 9 8 8 9 9 9
8 8 9 9 8 9 8 8 8 8 9 9 9 9 9 9 9 9 10 10 10 10 10 10 9 9 10 10 10 10 10 11 11 10 9 10 10 10 10 10 10 10 10 9 9 9 9 9 9
9 9 9 9 9 9 9 8 9 9 9 9 9 9 9 9 9 9 10 10 11 11 10 10 10 10 10 11 11 10 11 11 11 11 10 10 10 11 11 11 11 10 10 10 9 9 9 9 9
10 10 9 9 9 9 9 9 9 9 9 9 9 9 9 9 9 10 10 10 11 11 11 11 11 11 11 11 11 11 12 12 12 12 12 11 11 11 11 10 10 10 10 9 9 9 10 10 10
10 10 10 10 10 10 9 10 9 9 9 10 10 9 9 10 10 10 11 11 11 12 12 11 11 11 11 12 12 12 13 13 13 13 13 12 12 12 11 11 11 11 11 10 10 10 10 10 10
11 10 10 10 10 11 10 10 10 9 9 10 10 10 10 11 11 10 11 12 12 12 12 12 12 12 12 12 12 13 13 13 13 13 12 12 13 12 12 12 12 12 11 11 11 11 11 11 12
11 12 11 12 12 11 11 11 11 10 10 10 11 11 11 11 12 12 12 12 12 13 13 14 14 14 14 13 13 13 13 13 13 13 13 13 13 13 12 13 13 13 12 12 12 12 13 13 13
13 13 13 14 14 13 12 11 11 11 11 11 12 12 12 12 13 13 13 13 13 14 14 14 14 14 14 15 14 14 14 14 15 14 14 14 15 14 14 14 14 14 14 14 14 14 15 15 15
14 14 14 14 14 14 13 12 12 13 13 13 13 13 13 14 14 14 15 14 14 15 15 15 16 15 16 16 16 16 15 16 16 16 15 15 15 15 15 15 15 15 15 15 15 15 15 15 15
15 15 15 16 16 15 15 15 14 14 14 15 15 15 15 15 15 15 15 16 16 16 16 16 16 16 16 16 16 16 16 16 17 17 16 16 16 16 16 16 16 16 15 15 15 16 16 16 15
16 16 16 16 16 16 17 17 15 15 15 16 16 16 16 16 16 16 16 17 17 18 17 17 17 17 17 17 18 18 17 17 17 17 17 17 17 17 17 16 16 16 16 16 16 17 16 16 16
Wind_Direction
191 191 186 182 185 194 202 200 202 195 198 205 204 202 207 208 220 225 221 217 227 252 297 328 335 345 2 353 337 330 314 311 310 299 300 298 289 280 269 270 278 283 287 287 266 246 257 253 253
191 193 195 198 195 197 207 214 210 207 207 208 203 204 210 221 224 229 232 234 244 255 268 288 302 297 302 303 305 314 304 292 285 282 282 284 284 283 271 273 282 289 294 294 261 247 256 259 256
199 203 207 211 209 215 220 221 217 209 208 205 204 208 219 232 239 237 244 248 250 253 258 272 281 289 295 294 296 302 303 287 279 279 280 285 284 280 280 282 290 290 287 282 265 261 267 266 254
209 214 220 222 220 222 226 226 222 222 229 215 216 224 228 241 252 255 255 255 254 254 258 267 274 278 286 291 293 293 294 291 287 284 282 285 282 280 279 279 284 285 283 276 265 269 282 274 262
216 219 225 224 223 226 226 227 227 237 242 228 226 233 243 251 255 259 262 258 253 257 259 266 273 274 277 287 292 292 294 299 300 295 291 285 281 275 271 269 270 273 272 272 261 266 276 272 269
224 227 226 223 226 229 231 228 233 238 239 233 234 241 252 255 257 261 263 260 253 259 263 268 271 275 277 283 289 292 294 294 294 293 292 289 282 274 271 270 267 268 267 267 261 261 271 277 271
225 228 233 236 235 235 237 238 241 241 242 244 247 253 259 255 258 261 262 264 262 261 266 272 270 272 273 279 287 289 290 293 292 291 290 285 279 274 270 270 269 265 261 265 262 260 267 275 265
236 238 241 241 239 241 243 243 246 247 243 247 253 259 261 262 261 259 260 263 265 266 272 272 269 269 272 277 285 287 286 290 292 291 292 283 273 268 268 267 264 261 259 260 263 257 259 264 261
242 242 242 240 240 242 243 245 247 248 241 246 253 258 260 264 262 258 260 264 270 273 272 270 271 270 270 273 278 279 278 281 284 290 293 285 276 271 266 268 265 266 267 268 273 277 267 270 273
246 246 244 243 243 244 245 248 247 244 241 246 252 257 262 263 261 259 260 264 270 274 272 272 275 274 272 270 271 271 272 282 285 287 287 282 281 276 273 272 269 266 265 267 274 276 273 267 273
250 247 246 243 243 245 247 247 247 247 248 250 254 260 262 264 264 260 262 266 267 268 272 277 276 273 268 267 269 268 271 279 281 284 283 279 274 276 276 275 270 266 267 266 273 277 277 275 277
255 250 249 249 247 245 246 247 248 250 255 256 256 263 265 264 262 263 268 269 267 269 274 279 279 273 270 269 270 271 268 275 279 281 280 275 270 272 275 279 275 270 270 271 275 276 277 276 274
256 253 253 252 248 247 248 247 251 255 256 260 260 259 261 266 263 263 268 267 268 271 275 279 277 273 273 272 270 272 270 270 275 274 276 275 274 274 276 278 273 270 267 268 273 276 276 272 272
257 254 251 252 253 252 252 251 253 258 257 260 262 259 258 260 264 263 266 268 270 273 275 277 276 276 276 274 270 270 269 267 273 274 273 271 272 274 276 278 277 270 268 271 270 272 273 273 276
257 252 249 250 253 254 253 251 253 255 256 259 263 260 255 258 261 261 261 266 270 271 272 273 274 275 280 277 270 267 266 267 272 274 273 270 268 270 275 277 273 271 269 273 273 272 272 278 277
257 253 251 250 251 252 254 254 253 256 258 263 263 260 257 261 261 257 259 263 267 271 271 269 270 272 274 274 269 266 267 269 271 275 274 272 270 271 276 277 272 272 271 275 278 276 276 279 279
257 256 253 253 249 250 254 258 258 258 261 265 267 264 265 264 263 257 257 260 263 268 268 268 270 270 270 267 268 270 268 265 267 269 272 273 270 266 271 276 277 277 274 274 277 279 280 280 279
255 255 253 256 253 250 253 257 258 261 263 266 266 265 266 267 264 259 261 263 262 263 265 268 271 269 267 268 265 269 270 268 268 270 271 269 267 272 274 272 276 279 279 278 280 278 279 279 281
249 249 250 252 250 251 254 257 260 263 266 267 265 265 266 266 266 261 260 262 262 262 264 263 267 267 266 265 264 269 272 273 273 270 269 267 268 273 275 274 277 279 279 278 280 277 276 278 280
250 250 250 250 250 253 256 256 258 263 268 269 266 266 269 267 263 261 263 262 262 262 264 266 265 264 266 267 267 269 270 271 270 266 268 270 268 269 272 273 274 275 274 275 275 274 276 278 280
250 251 253 255 253 256 261 254 258 265 269 270 270 269 268 266 267 269 269 265 263 264 264 265 265 266 267 268 269 266 271 271 268 268 268 270 271 270 273 274 273 272 270 269 272 276 276 278 281
253 253 254 254 257 258 259 259 261 267 269 269 269 269 267 265 266 269 272 273 268 266 266 267 269 269 271 271 271 272 273 271 268 267 269 269 270 272 274 274 272 272 271 269 272 277 279 282 284
252 252 253 256 260 262 264 266 266 268 269 268 267 267 268 267 267 268 271 274 274 272 272 271 269 269 272 274 273 276 274 272 269 267 267 267 269 270 272 273 273 272 271 271 272 277 281 283 285
253 256 258 259 263 265 266 267 270 270 273 270 266 266 267 268 269 271 273 275 276 275 274 273 272 272 273 274 275 276 275 273 270 269 266 264 265 266 267 268 269 268 268 270 273 278 281 283 285
254 258 264 265 265 266 266 267 268 271 272 269 267 267 267 268 272 274 274 275 275 274 274 272 271 269 271 273 273 275 275 274 271 269 268 265 264 266 269 267 267 271 271 270 272 276 279 282 285
253 254 257 262 265 267 264 266 270 270 269 269 269 269 269 269 273 276 278 278 278 277 275 273 270 269 270 272 272 273 274 273 271 270 267 266 268 267 268 269 270 271 270 271 272 275 277 280 282
255 256 257 261 263 265 265 266 267 267 267 269 270 271 271 272 273 276 278 280 279 279 277 275 273 273 273 273 272 272 272 271 270 270 269 268 268 267 269 270 271 270 269 272 273 275 277 279 279
258 257 257 259 262 265 266 263 264 264 267 270 273 274 273 273 276 275 275 276 279 279 277 277 275 275 275 274 273 273 273 272 271 269 270 270 267 265 268 269 269 270 271 273 275 276 278 280 279
260 258 258 260 261 263 266 267 267 267 267 270 271 272 272 272 273 274 274 276 276 276 276 275 275 276 277 276 275 273 275 274 273 271 271 271 269 266 266 268 269 270 271 272 275 277 278 280 279
256 258 258 260 262 263 265 267 268 270 268 268 270 270 271 272 274 275 275 275 274 274 275 275 274 274 275 276 275 274 275 273 273 272 269 269 267 265 265 267 268 268 270 273 274 276 279 280 279
Height
5890 5890 5891 5892 5894 5894 5893 5894 5893 5893 5894 5894 5893 5893 5893 5894 5895 5897 5894 5892 5892 5892 5891 5891 5890 5890 5889 5888 5888 5887 5887 5886 5885 5885 5884 5884 5883 5883 5882 5882 5881 5880 5878 5875 5872 5875 5877 5878 5879
5889 5890 5892 5892 5893 5893 5893 5893 5893 5893 5893 5893 5893 5893 5893 5893 5893 5893 5892 5892 5892 5891 5891 5890 5890 5889 5889 5888 5887 5887 5886 5885 5885 5884 5884 5883 5883 5882 5881 5881 5880 5879 5877 5874 5872 5875 5877 5878 5878
5889 5890 5891 5892 5892 5892 5893 5892 5892 5892 5892 5892 5892 5892 5893 5893 5892 5892 5892 5891 5891 5891 5890 5890 5889 5889 5888 5887 5887 5886 5885 5884 5884 5883 5883 5882 5882 5881 5880 5880 5879 5879 5877 5876 5875 5876 5876 5877 5877
5888 5889 5891 5891 5891 5891 5891 5891 5891 5891 5892 5891 5892 5892 5891 5891 5891 5891 5891 5890 5890 5890 5889 5889 5888 5888 5887 5887 5886 5885 5884 5884 5883 5882 5882 5881 5881 5880 5880 5879 5878 5878 5877 5876 5876 5876 5876 5876 5876
5887 5888 5889 5889 5890 5890 5890 5890 5890 5890 5890 5890 5891 5891 5890 5890 5890 5890 5890 5889 5889 5889 5889 5888 5888 5887 5887 5886 5885 5884 5883 5882 5882 5881 5880 5880 5880 5879 5879 5878 5877 5877 5876 5876 5875 5875 5875 5875 5875
5887 5887 5889 5888 5889 5889 5889 5889 5889 5889 5889 5889 5889 5889 5889 5889 5889 5889 5888 5888 5888 5888 5888 5887 5887 5886 5886 5885 5885 5884 5883 5881 5881 5880 5879 5879 5878 5878 5877 5877 5876 5875 5875 5875 5875 5874 5874 5874 5874
5886 5887 5887 5887 5887 5888 5888 5888 5888 5888 5888 5888 5888 5888 5888 5888 5888 5887 5887 5887 5887 5887 5887 5886 5886 5885 5885 5884 5884 5883 5881 5880 5879 5879 5878 5877 5877 5876 5876 5875 5875 5874 5874 5874 5874 5873 5873 5873 5873
5884 5886 5885 5886 5886 5886 5886 5886 5886 5886 5887 5887 5887 5887 5887 5887 5886 5886 5886 5886 5886 5885 5885 5885 5884 5884 5883 5883 5882 5881 5880 5879 5878 5877 5876 5876 5875 5874 5874 5874 5873 5873 5872 5872 5872 5872 5872 5872 5872
5883 5885 5884 5884 5884 5884 5884 5885 5885 5885 5885 5885 5885 5885 5885 5885 5885 5885 5884 5884 5884 5884 5884 5883 5883 5882 5882 5881 5881 5880 5879 5878 5877 5876 5875 5874 5874 5873 5872 5872 5872 5871 5871 5871 5871 5871 5871 5871 5870
5881 5882 5882 5882 5882 5882 5883 5883 5883 5883 5883 5884 5884 5883 5883 5883 5883 5883 5883 5883 5883 5882 5882 5882 5881 5881 5880 5880 5879 5878 5877 5877 5876 5875 5874 5873 5872 5871 5871 5870 5870 5870 5870 5870 5870 5869 5869 5869 5869
5879 5880 5880 5880 5880 5880 5881 5881 5881 5882 5882 5882 5882 5882 5882 5882 5882 5881 5881 5881 5881 5880 5880 5880 5879 5879 5878 5878 5877 5876 5876 5875 5874 5873 5872 5872 5871 5870 5870 5869 5869 5868 5869 5868 5868 5868 5868 5868 5867
5877 5877 5877 5877 5878 5878 5878 5879 5879 5880 5880 5880 5880 5880 5880 5880 5880 5879 5879 5879 5879 5879 5878 5878 5877 5877 5876 5876 5875 5875 5874 5873 5872 5872 5871 5870 5870 5869 5868 5868 5868 5867 5867 5867 5867 5867 5867 5866 5866
5875 5875 5875 5875 5875 5876 5876 5877 5877 5877 5878 5878 5878 5878 5878 5878 5877 5878 5878 5877 5877 5876 5876 5876 5875 5874 5874 5874 5873 5873 5872 5872 5871 5870 5869 5869 5868 5868 5867 5867 5867 5866 5866 5866 5866 5866 5865 5865 5865
5872 5873 5873 5873 5873 5874 5874 5875 5875 5875 5875 5875 5875 5875 5876 5876 5876 5876 5875 5875 5875 5875 5874 5874 5873 5872 5872 5872 5871 5871 5870 5870 5869 5869 5868 5867 5867 5866 5866 5866 5865 5865 5865 5865 5864 5864 5864 5863 5863
5870 5871 5871 5871 5871 5872 5873 5873 5873 5873 5873 5873 5873 5873 5873 5873 5873 5873 5873 5873 5873 5873 5872 5872 5871 5871 5870 5869 5869 5869 5868 5868 5867 5867 5866 5866 5865 5865 5864 5864 5864 5863 5863 5863 5863 5862 5862 5862 5861
5868 5869 5869 5870 5870 5870 5872 5872 5871 5871 5871 5871 5871 5871 5871 5871 5871 5871 5871 5871 5871 5870 5870 5869 5869 5869 5868 5867 5867 5867 5866 5866 5866 5865 5865 5864 5864 5863 5863 5863 5862 5862 5862 5861 5861 5861 5860 5860 5859
5866 5867 5867 5868 5867 5868 5869 5869 5869 5869 5869 5869 5869 5869 5869 5869 5869 5869 5868 5868 5868 5868 5868 5867 5867 5867 5866 5865 5865 5865 5864 5864 5864 5863 5863 5863 5862 5862 5862 5861 5861 5860 5860 5860 5859 5859 5858 5858 5858
5864 5864 5865 5865 5865 5866 5866 5866 5866 5866 5866 5866 5866 5866 5866 5866 5866 5866 5866 5866 5866 5866 5865 5865 5865 5864 5864 5864 5863 5863 5862 5862 5862 5861 5861 5861 5861 5860 5860 5860 5859 5859 5858 5858 5858 5857 5857 5856 5856
5862 5862 5863 5863 5863 5864 5864 5864 5864 5864 5864 5864 5864 5864 5864 5864 5864 5864 5864 5864 5863 5863 5863 5863 5862 5862 5862 5861 5861 5861 5860 5860 5860 5859 5859 5859 5859 5858 5858 5858 5857 5857 5857 5856 5856 5855 5854 5854 5854
5859 5860 5860 5861 5861 5861 5862 5862 5862 5862 5862 5862 5862 5862 5862 5862 5862 5862 5862 5861 5861 5861 5861 5860 5860 5859 5859 5859 5858 5858 5858 5857 5857 5857 5856 5856 5856 5856 5856 5856 5855 5855 5855 5854 5854 5853 5852 5852 5851
5857 5858 5858 5859 5859 5859 5860 5860 5860 5860 5860 5859 5859 5859 5859 5859 5859 5860 5859 5859 5859 5859 5858 5858 5857 5857 5856 5856 5856 5855 5855 5855 5854 5854 5854 5854 5853 5853 5853 5853 5853 5852 5852 5852 5851 5851 5850 5849 5849
5854 5855 5856 5856 5857 5857 5858 5858 5858 5857 5857 5857 5857 5857 5857 5857 5857 5857 5857 5856 5856 5856 5855 5855 5854 5854 5854 5853 5853 5853 5852 5852 5851 5851 5851 5851 5851 5851 5850 5850 5850 5849 5849 5849 5849 5848 5848 5847 5846
5852 5853 5853 5854 5854 5855 5855 5856 5856 5855 5855 5855 5855 5854 5854 5855 5854 5854 5854 5854 5853 5853 5852 5852 5852 5851 5851 5850 5850 5849 5849 5848 5848 5848 5848 5848 5848 5848 5847 5847 5847 5847 5846 5846 5846 5845 5845 5844 5844
5850 5851 5851 5852 5852 5853 5853 5854 5854 5853 5852 5852 5852 5852 5852 5852 5851 5851 5851 5851 5850 5850 5849 5849 5848 5848 5848 5847 5847 5846 5845 5845 5845 5844 5844 5844 5844 5844 5844 5844 5844 5844 5843 5843 5843 5842 5842 5841 5841
5847 5849 5850 5850 5850 5851 5851 5850 5851 5850 5850 5849 5849 5849 5849 5849 5849 5848 5848 5848 5847 5847 5846 5846 5845 5845 5844 5844 5843 5842 5842 5841 5841 5841 5841 5841 5841 5841 5841 5841 5840 5840 5840 5840 5839 5839 5839 5838 5837
5845 5846 5848 5848 5848 5848 5847 5848 5848 5847 5847 5846 5846 5846 5846 5846 5845 5845 5845 5844 5844 5843 5842 5842 5841 5841 5841 5840 5840 5839 5838 5838 5837 5837 5837 5837 5837 5837 5837 5837 5837 5836 5836 5836 5835 5835 5834 5834 5833
5841 5842 5844 5844 5844 5844 5844 5845 5845 5844 5844 5843 5843 5843 5842 5842 5842 5841 5841 5841 5840 5839 5839 5838 5838 5837 5837 5836 5836 5835 5834 5834 5833 5833 5832 5832 5833 5833 5833 5833 5832 5832 5832 5831 5831 5830 5830 5829 5829
5838 5839 5840 5840 5840 5841 5841 5841 5842 5840 5840 5840 5839 5839 5839 5838 5838 5838 5837 5837 5836 5836 5835 5834 5834 5833 5833 5832 5831 5831 5830 5830 5829 5829 5828 5828 5828 5828 5828 5828 5828 5827 5827 5827 5826 5826 5825 5825 5824
5834 5835 5835 5836 5836 5837 5837 5840 5838 5837 5836 5836 5836 5835 5835 5834 5834 5834 5833 5833 5832 5832 5831 5830 5829 5829 5828 5827 5827 5827 5826 5825 5825 5824 5824 5823 5823 5823 5823 5823 5823 5823 5822 5822 5822 5821 5821 5820 5820
5829 5830 5831 5832 5832 5832 5833 5836 5833 5832 5832 5831 5831 5831 5831 5830 5830 5829 5829 5828 5828 5827 5826 5826 5825 5824 5824 5823 5822 5822 5821 5821 5820 5819 5819 5819 5819 5819 5819 5819 5818 5818 5818 5817 5817 5816 5816 5815 5815